Simultaneous Nadir Overpasses (SNOs) Predictions

Prediction of SNOs between NOAA-19 and METOP-C Satellite Orbit:

Table of predicted SNOs for the next 14.0 days since TLE Epoch: 4/27/2024
Index Date (NOAA-19) Time (NOAA-19) Lat,Lon (NOAA-19) SZA (NOAA-19 ) Date (METOP-C) Time (METOP-C) Lat,Lon (METOP-C) SZA (METOP-C ) Distance(km) Time Diff (sec)
1 04/27/2024 16:33:54 80.16, -44.69 66.89 04/27/2024 16:35:02 80.16, -44.67 66.92 0.59 68
2 04/27/2024 17:24:53 -80.21, 123.22 113.03 04/27/2024 17:25:41 -80.20, 123.15 113.03 1.24 48
3 04/27/2024 18:15:49 80.23, -69.18 67.01 04/27/2024 18:16:21 80.23, -69.19 67.02 0.29 32
4 04/27/2024 19:06:49 -80.25, 98.42 112.96 04/27/2024 19:07:01 -80.25, 98.32 112.97 1.99 12
5 04/27/2024 19:57:45 80.28, -93.97 67.08 04/27/2024 19:57:41 80.28, -94.02 67.08 0.89 4
6 04/27/2024 20:48:44 -80.32, 73.95 112.84 04/27/2024 20:48:20 -80.32, 73.81 112.87 2.74 24
7 04/27/2024 21:39:41 80.33,-118.76 67.16 04/27/2024 21:39:01 80.32,-118.84 67.13 1.63 40
8 04/27/2024 22:30:42 -80.33, 48.51 112.86 04/27/2024 22:29:41 -80.33, 48.66 112.86 3.04 61
9 05/09/2024 11:31:42 -80.04,-150.42 116.71 05/09/2024 11:32:48 -80.03,-150.47 116.70 1.19 66
10 05/09/2024 12:22:35 80.07, 17.25 63.35 05/09/2024 12:23:28 80.06, 17.16 63.35 1.89 53
11 05/09/2024 13:13:36 -80.13,-174.64 116.54 05/09/2024 13:14:06 -80.13,-174.73 116.54 1.85 30
12 05/09/2024 14:04:30 80.14, -7.27 63.47 05/09/2024 14:04:47 80.13, -7.40 63.45 2.56 17
13 05/09/2024 14:55:32 -80.18, 160.53 116.47 05/09/2024 14:55:26 -80.17, 160.41 116.49 2.52 6
14 05/09/2024 15:46:25 80.21, -31.78 63.59 05/09/2024 15:46:06 80.20, -31.94 63.56 3.24 19
15 05/09/2024 16:37:27 -80.25, 136.03 116.34 05/09/2024 16:36:45 -80.24, 135.87 116.38 3.20 42



Historial Predications of SNOs between NOAA-19 and METOP-C
